Time,TemperatureF,DewpointF,PressureIn,WindDirection,WindDirectionDegrees,WindSpeedMPH,WindSpeedGustMPH,Humidity,HourlyPrecipIn,Conditions,Clouds,dailyrainin,SolarRadiationWatts/m^2,SoftwareType,DateUTC
2013-11-20 00:00:00,50.0,23.4,30.17,South,180,7.0,7.0,35,0.00,,,0.00,0,Wunderground v.1.15,2013-11-20 06:00:00,
2013-11-20 00:05:00,49.9,23.3,30.17,SSW,196,6.0,7.0,35,0.00,,,0.00,0,Wunderground v.1.15,2013-11-20 06:05:00,
2013-11-20 00:10:00,49.8,23.2,30.17,SSE,165,6.0,6.0,35,0.00,,,0.00,0,Wunderground v.1.15,2013-11-20 06:10:00,
2013-11-20 00:15:00,49.7,23.1,30.17,SSE,147,6.0,11.0,35,0.00,,,0.00,0,Wunderground v.1.15,2013-11-20 06:15:00,
2013-11-20 00:20:00,49.7,22.4,30.17,SSE,166,6.0,6.0,34,0.00,,,0.00,0,Wunderground v.1.15,2013-11-20 06:20:00,
2013-11-20 00:30:00,49.8,22.5,30.16,SSE,157,7.0,7.0,34,0.00,,,0.00,0,Wunderground v.1.15,2013-11-20 06:30:00,
2013-11-20 00:40:00,49.8,21.8,30.16,SSE,149,7.0,9.0,33,0.00,,,0.00,0,Wunderground v.1.15,2013-11-20 06:40:00,
2013-11-20 00:50:00,49.7,21.7,30.15,ESE,121,7.0,7.0,33,0.00,,,0.00,0,Wunderground v.1.15,2013-11-20 06:50:00,
2013-11-20 00:55:00,49.7,21.7,30.15,SSE,153,6.0,7.0,33,0.00,,,0.00,0,Wunderground v.1.15,2013-11-20 06:55:00,
2013-11-20 01:05:00,49.6,20.9,30.15,SSE,154,6.0,8.0,32,0.00,,,0.00,0,Wunderground v.1.15,2013-11-20 07:05:00,
2013-11-20 01:10:00,49.6,21.6,30.15,SSE,161,7.0,7.0,33,0.00,,,0.00,0,Wunderground v.1.15,2013-11-20 07:10:00,
2013-11-20 01:15:00,49.7,21.0,30.15,SE,136,8.0,10.0,32,0.00,,,0.00,0,Wunderground v.1.15,2013-11-20 07:15:00,
2013-11-20 01:25:00,49.7,21.0,30.15,SE,143,8.0,12.0,32,0.00,,,0.00,0,Wunderground v.1.15,2013-11-20 07:25:00,
2013-11-20 01:30:00,49.7,21.0,30.15,SSE,150,8.0,10.0,32,0.00,,,0.00,0,Wunderground v.1.15,2013-11-20 07:30:00,
2013-11-20 01:40:00,49.6,20.9,30.15,SSE,168,7.0,7.0,32,0.00,,,0.00,0,Wunderground v.1.15,2013-11-20 07:40:00,
2013-11-20 01:45:00,49.6,20.9,30.15,SE,130,7.0,10.0,32,0.00,,,0.00,0,Wunderground v.1.15,2013-11-20 07:45:00,
2013-11-20 01:55:00,49.6,20.9,30.14,SSE,161,7.0,8.0,32,0.00,,,0.00,0,Wunderground v.1.15,2013-11-20 07:55:00,
2013-11-20 02:00:00,49.5,20.8,30.15,SSE,147,7.0,7.0,32,0.00,,,0.00,0,Wunderground v.1.15,2013-11-20 08:00:00,
2013-11-20 02:10:00,49.4,20.7,30.14,ESE,112,6.0,8.0,32,0.00,,,0.00,0,Wunderground v.1.15,2013-11-20 08:10:00,
2013-11-20 02:15:00,49.4,20.0,30.14,SSE,155,7.0,12.0,31,0.00,,,0.00,0,Wunderground v.1.15,2013-11-20 08:15:00,
2013-11-20 02:25:00,49.4,20.0,30.14,SSE,151,7.0,7.0,31,0.00,,,0.00,0,Wunderground v.1.15,2013-11-20 08:25:00,
2013-11-20 02:30:00,49.4,20.0,30.14,SSE,150,7.0,7.0,31,0.00,,,0.00,0,Wunderground v.1.15,2013-11-20 08:30:00,
2013-11-20 02:40:00,49.4,19.2,30.13,SSE,158,7.0,8.0,30,0.00,,,0.00,0,Wunderground v.1.15,2013-11-20 08:40:00,
2013-11-20 02:45:00,49.4,20.0,30.13,SSE,165,6.0,8.0,31,0.00,,,0.00,0,Wunderground v.1.15,2013-11-20 08:45:00,
2013-11-20 02:55:00,49.2,19.8,30.13,SE,124,6.0,6.0,31,0.00,,,0.00,0,Wunderground v.1.15,2013-11-20 08:55:00,
2013-11-20 03:00:00,49.2,19.0,30.13,SSE,156,7.0,7.0,30,0.00,,,0.00,0,Wunderground v.1.15,2013-11-20 09:00:00,
2013-11-20 03:05:00,49.3,19.1,30.13,South,187,7.0,7.0,30,0.00,,,0.00,0,Wunderground v.1.15,2013-11-20 09:05:00,
2013-11-20 03:15:00,49.2,19.0,30.12,SE,146,8.0,8.0,30,0.00,,,0.00,0,Wunderground v.1.15,2013-11-20 09:15:00,
2013-11-20 03:20:00,49.1,19.7,30.12,SE,138,8.0,8.0,31,0.00,,,0.00,0,Wunderground v.1.15,2013-11-20 09:20:00,
2013-11-20 03:30:00,48.9,18.8,30.12,SSE,159,6.0,9.0,30,0.00,,,0.00,0,Wunderground v.1.15,2013-11-20 09:30:00,
2013-11-20 03:35:00,48.9,18.8,30.12,SSE,151,7.0,9.0,30,0.00,,,0.00,0,Wunderground v.1.15,2013-11-20 09:35:00,
2013-11-20 03:40:00,48.9,19.5,30.12,SE,146,6.0,6.0,31,0.00,,,0.00,0,Wunderground v.1.15,2013-11-20 09:40:00,
2013-11-20 03:50:00,48.7,18.6,30.12,SSE,150,7.0,10.0,30,0.00,,,0.00,0,Wunderground v.1.15,2013-11-20 09:50:00,
2013-11-20 03:55:00,48.7,19.4,30.11,SSE,161,7.0,10.0,31,0.00,,,0.00,0,Wunderground v.1.15,2013-11-20 09:55:00,
2013-11-20 04:05:00,48.6,19.3,30.11,SSE,161,8.0,8.0,31,0.00,,,0.00,0,Wunderground v.1.15,2013-11-20 10:05:00,
2013-11-20 04:10:00,48.5,19.2,30.11,SE,135,8.0,10.0,31,0.00,,,0.00,0,Wunderground v.1.15,2013-11-20 10:10:00,
2013-11-20 04:20:00,48.3,19.0,30.11,SSE,166,8.0,8.0,31,0.00,,,0.00,0,Wunderground v.1.15,2013-11-20 10:20:00,
2013-11-20 04:25:00,48.2,19.7,30.10,SSE,156,8.0,8.0,32,0.00,,,0.00,0,Wunderground v.1.15,2013-11-20 10:25:00,
2013-11-20 04:30:00,48.2,19.7,30.10,SSE,154,7.0,8.0,32,0.00,,,0.00,0,Wunderground v.1.15,2013-11-20 10:30:00,
2013-11-20 04:40:00,48.1,19.6,30.11,SSE,160,7.0,7.0,32,0.00,,,0.00,0,Wunderground v.1.15,2013-11-20 10:40:00,
2013-11-20 04:45:00,48.0,19.5,30.11,South,171,7.0,7.0,32,0.00,,,0.00,0,Wunderground v.1.15,2013-11-20 10:45:00,
2013-11-20 04:55:00,47.9,20.1,30.11,SSE,147,6.0,8.0,33,0.00,,,0.00,0,Wunderground v.1.15,2013-11-20 10:55:00,
2013-11-20 05:00:00,47.8,20.1,30.11,SSE,163,4.0,4.0,33,0.00,,,0.00,0,Wunderground v.1.15,2013-11-20 11:00:00,
2013-11-20 05:05:00,47.7,20.7,30.11,SSE,153,5.0,5.0,34,0.00,,,0.00,0,Wunderground v.1.15,2013-11-20 11:05:00,
2013-11-20 05:15:00,46.7,25.4,30.12,SSW,196,6.0,9.0,43,0.00,,,0.00,0,Wunderground v.1.15,2013-11-20 11:15:00,
2013-11-20 05:20:00,46.4,23.9,30.11,SSE,149,4.0,6.0,41,0.00,,,0.00,0,Wunderground v.1.15,2013-11-20 11:20:00,
2013-11-20 05:30:00,46.5,22.8,30.09,SSE,157,8.0,14.0,39,0.00,,,0.00,0,Wunderground v.1.15,2013-11-20 11:30:00,
2013-11-20 05:35:00,46.5,22.8,30.10,SSE,148,8.0,14.0,39,0.00,,,0.00,0,Wunderground v.1.15,2013-11-20 11:35:00,
2013-11-20 05:45:00,46.6,22.3,30.10,SSE,163,5.0,6.0,38,0.00,,,0.00,0,Wunderground v.1.15,2013-11-20 11:45:00,
2013-11-20 05:50:00,46.5,23.4,30.10,SSE,163,6.0,10.0,40,0.00,,,0.00,0,Wunderground v.1.15,2013-11-20 11:50:00,
2013-11-20 05:55:00,46.3,23.3,30.09,SSE,159,8.0,16.0,40,0.00,,,0.00,0,Wunderground v.1.15,2013-11-20 11:55:00,
2013-11-20 06:05:00,46.3,23.9,30.08,SSE,148,11.0,11.0,41,0.00,,,0.00,0,Wunderground v.1.15,2013-11-20 12:05:00,
2013-11-20 06:15:00,45.9,24.6,30.09,SE,144,10.0,10.0,43,0.00,,,0.00,0,Wunderground v.1.15,2013-11-20 12:15:00,
2013-11-20 06:20:00,45.7,25.0,30.08,SE,144,12.0,12.0,44,0.00,,,0.00,0,Wunderground v.1.15,2013-11-20 12:20:00,
2013-11-20 06:25:00,45.4,25.3,30.08,SSE,150,12.0,14.0,45,0.00,,,0.00,0,Wunderground v.1.15,2013-11-20 12:25:00,
2013-11-20 06:35:00,45.0,26.0,30.08,South,178,10.0,11.0,47,0.00,,,0.00,0,Wunderground v.1.15,2013-11-20 12:35:00,
2013-11-20 06:40:00,44.9,26.4,30.08,ESE,111,10.0,10.0,48,0.00,,,0.00,0,Wunderground v.1.15,2013-11-20 12:40:00,
2013-11-20 06:50:00,44.6,27.1,30.07,SE,137,9.0,9.0,50,0.00,,,0.00,0,Wunderground v.1.15,2013-11-20 12:50:00,
2013-11-20 06:55:00,44.5,27.5,30.07,SSE,151,9.0,10.0,51,0.00,,,0.00,0,Wunderground v.1.15,2013-11-20 12:55:00,
2013-11-20 07:00:00,44.4,27.4,30.07,SSE,157,9.0,10.0,51,0.00,,,0.00,0,Wunderground v.1.15,2013-11-20 13:00:00,
2013-11-20 07:10:00,44.4,26.9,30.08,South,185,9.0,9.0,50,0.00,,,0.00,0,Wunderground v.1.15,2013-11-20 13:10:00,
2013-11-20 07:15:00,44.5,27.0,30.09,SSE,163,8.0,9.0,50,0.00,,,0.00,0,Wunderground v.1.15,2013-11-20 13:15:00,
2013-11-20 07:25:00,44.5,27.5,30.11,South,189,6.0,8.0,51,0.00,,,0.00,0,Wunderground v.1.15,2013-11-20 13:25:00,
2013-11-20 07:30:00,44.4,28.3,30.10,South,184,6.0,6.0,53,0.00,,,0.00,0,Wunderground v.1.15,2013-11-20 13:30:00,
2013-11-20 07:40:00,44.1,28.9,30.11,SSW,207,6.0,6.0,55,0.00,,,0.00,0,Wunderground v.1.15,2013-11-20 13:40:00,
2013-11-20 07:45:00,43.8,30.4,30.11,South,177,6.0,6.0,59,0.00,,,0.00,0,Wunderground v.1.15,2013-11-20 13:45:00,
2013-11-20 07:55:00,42.7,32.5,30.11,South,180,6.0,6.0,67,0.17,,,0.03,0,Wunderground v.1.15,2013-11-20 13:55:00,
2013-11-20 08:00:00,42.0,32.6,30.11,SSE,163,6.0,7.0,69,0.12,,,0.04,0,Wunderground v.1.15,2013-11-20 14:00:00,
2013-11-20 08:05:00,41.5,32.8,30.10,SSE,150,7.0,17.0,71,0.29,,,0.06,0,Wunderground v.1.15,2013-11-20 14:05:00,
2013-11-20 08:15:00,41.1,32.8,30.10,SE,139,8.0,9.0,72,0.06,,,0.06,0,Wunderground v.1.15,2013-11-20 14:15:00,
2013-11-20 08:20:00,41.1,33.1,30.09,SSE,156,8.0,13.0,73,0.04,,,0.06,5,Wunderground v.1.15,2013-11-20 14:20:00,
2013-11-20 08:25:00,41.0,33.0,30.10,SSE,157,9.0,13.0,73,0.00,,,0.06,5,Wunderground v.1.15,2013-11-20 14:25:00,
2013-11-20 08:35:00,40.6,34.0,30.11,SE,138,6.0,8.0,77,0.12,,,0.08,11,Wunderground v.1.15,2013-11-20 14:35:00,
2013-11-20 08:45:00,40.4,34.1,30.11,SE,133,5.0,5.0,78,0.05,,,0.09,23,Wunderground v.1.15,2013-11-20 14:45:00,
2013-11-20 08:50:00,40.4,34.7,30.10,SSE,148,5.0,6.0,80,0.05,,,0.09,26,Wunderground v.1.15,2013-11-20 14:50:00,
2013-11-20 08:55:00,40.4,34.7,30.11,SE,129,5.0,6.0,80,0.05,,,0.09,23,Wunderground v.1.15,2013-11-20 14:55:00,
2013-11-20 09:05:00,40.4,34.4,30.12,ENE,77,5.0,6.0,79,0.00,,,0.09,18,Wunderground v.1.15,2013-11-20 15:05:00,
2013-11-20 09:10:00,40.4,35.0,30.12,East,91,4.0,4.0,81,0.00,,,0.10,12,Wunderground v.1.15,2013-11-20 15:10:00,
2013-11-20 09:15:00,40.4,35.0,30.12,NE,50,3.0,5.0,81,0.00,,,0.10,16,Wunderground v.1.15,2013-11-20 15:15:00,
2013-11-20 09:25:00,40.4,35.0,30.11,East,88,4.0,4.0,81,0.00,,,0.10,9,Wunderground v.1.15,2013-11-20 15:25:00,
2013-11-20 09:30:00,40.4,35.3,30.12,East,101,4.0,4.0,82,0.00,,,0.10,9,Wunderground v.1.15,2013-11-20 15:30:00,
2013-11-20 09:40:00,40.4,35.6,30.13,East,101,2.0,4.0,83,0.00,,,0.11,7,Wunderground v.1.15,2013-11-20 15:40:00,
2013-11-20 09:45:00,40.3,35.5,30.13,ESE,105,3.0,4.0,83,0.10,,,0.12,12,Wunderground v.1.15,2013-11-20 15:45:00,
2013-11-20 09:55:00,40.1,35.7,30.13,East,92,3.0,6.0,84,0.11,,,0.13,14,Wunderground v.1.15,2013-11-20 15:55:00,
2013-11-20 10:00:00,40.0,35.9,30.12,East,90,3.0,4.0,85,0.09,,,0.14,21,Wunderground v.1.15,2013-11-20 16:00:00,
2013-11-20 10:10:00,39.9,36.1,30.12,East,80,3.0,3.0,86,0.05,,,0.14,18,Wunderground v.1.15,2013-11-20 16:10:00,
2013-11-20 10:15:00,39.9,36.1,30.13,ENE,71,4.0,5.0,86,0.00,,,0.14,51,Wunderground v.1.15,2013-11-20 16:15:00,
2013-11-20 10:25:00,39.9,36.6,30.13,ENE,64,4.0,5.0,88,0.00,,,0.15,60,Wunderground v.1.15,2013-11-20 16:25:00,
2013-11-20 10:30:00,39.9,36.6,30.13,East,79,4.0,4.0,88,0.00,,,0.15,28,Wunderground v.1.15,2013-11-20 16:30:00,
2013-11-20 10:40:00,39.8,36.5,30.14,East,79,3.0,3.0,88,0.00,,,0.15,40,Wunderground v.1.15,2013-11-20 16:40:00,
2013-11-20 10:45:00,39.8,36.5,30.15,East,79,2.0,3.0,88,0.00,,,0.16,51,Wunderground v.1.15,2013-11-20 16:45:00,
2013-11-20 10:50:00,39.8,36.5,30.14,East,79,3.0,3.0,88,0.00,,,0.16,33,Wunderground v.1.15,2013-11-20 16:50:00,
2013-11-20 11:00:00,39.9,36.9,30.13,ENE,78,2.0,4.0,89,0.04,,,0.17,26,Wunderground v.1.15,2013-11-20 17:00:00,
2013-11-20 11:05:00,39.9,36.9,30.12,ENE,72,3.0,6.0,89,0.18,,,0.18,53,Wunderground v.1.15,2013-11-20 17:05:00,
2013-11-20 11:15:00,39.8,37.1,30.11,East,81,5.0,8.0,90,0.05,,,0.18,58,Wunderground v.1.15,2013-11-20 17:15:00,
2013-11-20 11:20:00,39.9,37.2,30.11,East,87,5.0,9.0,90,0.00,,,0.18,69,Wunderground v.1.15,2013-11-20 17:20:00,
2013-11-20 11:25:00,40.0,37.3,30.11,East,90,5.0,9.0,90,0.00,,,0.18,81,Wunderground v.1.15,2013-11-20 17:25:00,
2013-11-20 11:35:00,40.3,37.6,30.11,ESE,108,4.0,7.0,90,0.00,,,0.18,114,Wunderground v.1.15,2013-11-20 17:35:00,
2013-11-20 11:40:00,40.6,37.9,30.11,ENE,78,3.0,3.0,90,0.00,,,0.18,102,Wunderground v.1.15,2013-11-20 17:40:00,
2013-11-20 11:50:00,40.8,37.8,30.11,ESE,106,4.0,4.0,89,0.00,,,0.18,83,Wunderground v.1.15,2013-11-20 17:50:00,
2013-11-20 11:55:00,40.8,37.8,30.09,ESE,118,5.0,5.0,89,0.00,,,0.18,63,Wunderground v.1.15,2013-11-20 17:55:00,
2013-11-20 12:00:00,40.8,37.5,30.09,SE,125,5.0,5.0,88,0.00,,,0.18,77,Wunderground v.1.15,2013-11-20 18:00:00,
2013-11-20 12:10:00,40.6,37.3,30.07,East,92,7.0,7.0,88,0.00,,,0.18,56,Wunderground v.1.15,2013-11-20 18:10:00,
2013-11-20 12:15:00,40.6,37.6,30.07,ESE,121,7.0,7.0,89,0.00,,,0.19,51,Wunderground v.1.15,2013-11-20 18:15:00,
2013-11-20 12:25:00,40.5,37.5,30.07,East,96,5.0,8.0,89,0.00,,,0.19,74,Wunderground v.1.15,2013-11-20 18:25:00,
2013-11-20 12:30:00,40.6,37.6,30.07,ESE,105,5.0,7.0,89,0.00,,,0.19,35,Wunderground v.1.15,2013-11-20 18:30:00,
2013-11-20 12:40:00,40.6,37.6,30.05,ESE,113,7.0,9.0,89,0.00,,,0.19,47,Wunderground v.1.15,2013-11-20 18:40:00,
2013-11-20 12:45:00,40.6,37.6,30.05,ESE,105,7.0,9.0,89,0.00,,,0.20,104,Wunderground v.1.15,2013-11-20 18:45:00,
2013-11-20 12:50:00,40.7,37.7,30.05,ESE,104,6.0,6.0,89,0.00,,,0.20,67,Wunderground v.1.15,2013-11-20 18:50:00,
2013-11-20 13:00:00,41.0,37.7,30.04,SE,139,5.0,7.0,88,0.00,,,0.20,65,Wunderground v.1.15,2013-11-20 19:00:00,
2013-11-20 13:10:00,41.4,38.1,30.03,East,88,5.0,8.0,88,0.00,,,0.20,151,Wunderground v.1.15,2013-11-20 19:10:00,
2013-11-20 13:15:00,41.6,38.3,30.03,SE,130,6.0,8.0,88,0.00,,,0.20,67,Wunderground v.1.15,2013-11-20 19:15:00,
2013-11-20 13:20:00,41.7,38.1,30.03,East,84,6.0,6.0,87,0.00,,,0.20,105,Wunderground v.1.15,2013-11-20 19:20:00,
2013-11-20 13:30:00,42.2,38.6,30.03,ESE,123,5.0,5.0,87,0.00,,,0.20,179,Wunderground v.1.15,2013-11-20 19:30:00,
2013-11-20 13:35:00,42.4,38.5,30.02,SSE,149,6.0,8.0,86,0.00,,,0.20,186,Wunderground v.1.15,2013-11-20 19:35:00,
2013-11-20 13:45:00,42.6,38.4,30.02,SE,139,6.0,7.0,85,0.00,,,0.20,88,Wunderground v.1.15,2013-11-20 19:45:00,
2013-11-20 13:50:00,42.6,38.4,30.02,ESE,123,6.0,6.0,85,0.00,,,0.20,60,Wunderground v.1.15,2013-11-20 19:50:00,
2013-11-20 13:55:00,42.6,38.7,30.02,SE,136,5.0,6.0,86,0.00,,,0.20,91,Wunderground v.1.15,2013-11-20 19:55:00,
2013-11-20 14:05:00,42.8,38.6,30.02,SE,132,3.0,5.0,85,0.00,,,0.20,120,Wunderground v.1.15,2013-11-20 20:05:00,
2013-11-20 14:10:00,43.0,38.8,30.02,SE,146,4.0,4.0,85,0.00,,,0.20,116,Wunderground v.1.15,2013-11-20 20:10:00,
2013-11-20 14:20:00,43.2,39.0,30.02,SE,137,5.0,7.0,85,0.00,,,0.20,105,Wunderground v.1.15,2013-11-20 20:20:00,
2013-11-20 14:25:00,43.4,38.9,30.02,East,101,5.0,7.0,84,0.00,,,0.20,102,Wunderground v.1.15,2013-11-20 20:25:00,
2013-11-20 14:30:00,43.5,39.0,30.02,ESE,116,5.0,6.0,84,0.00,,,0.20,60,Wunderground v.1.15,2013-11-20 20:30:00,
2013-11-20 14:40:00,43.6,39.1,30.02,ESE,115,4.0,4.0,84,0.00,,,0.20,28,Wunderground v.1.15,2013-11-20 20:40:00,
2013-11-20 14:50:00,43.6,38.8,30.02,East,101,3.0,3.0,83,0.00,,,0.20,33,Wunderground v.1.15,2013-11-20 20:50:00,
2013-11-20 14:55:00,43.6,38.8,30.02,SE,134,3.0,5.0,83,0.00,,,0.20,37,Wunderground v.1.15,2013-11-20 20:55:00,
2013-11-20 15:05:00,43.7,38.9,30.02,ESE,122,4.0,4.0,83,0.00,,,0.20,40,Wunderground v.1.15,2013-11-20 21:05:00,
2013-11-20 15:10:00,43.7,38.9,30.02,ESE,119,4.0,5.0,83,0.00,,,0.20,42,Wunderground v.1.15,2013-11-20 21:10:00,
2013-11-20 15:15:00,43.8,39.0,30.02,ESE,118,4.0,5.0,83,0.00,,,0.20,60,Wunderground v.1.15,2013-11-20 21:15:00,
2013-11-20 15:25:00,43.9,39.1,30.02,ESE,123,5.0,5.0,83,0.00,,,0.20,46,Wunderground v.1.15,2013-11-20 21:25:00,
2013-11-20 15:30:00,44.0,39.2,30.02,ESE,117,4.0,4.0,83,0.00,,,0.20,40,Wunderground v.1.15,2013-11-20 21:30:00,
2013-11-20 15:40:00,44.1,39.3,30.02,East,91,3.0,3.0,83,0.00,,,0.20,26,Wunderground v.1.15,2013-11-20 21:40:00,
2013-11-20 15:45:00,44.1,39.3,30.02,ESE,115,4.0,6.0,83,0.00,,,0.20,33,Wunderground v.1.15,2013-11-20 21:45:00,
2013-11-20 15:50:00,44.1,39.3,30.02,ESE,110,4.0,4.0,83,0.00,,,0.20,30,Wunderground v.1.15,2013-11-20 21:50:00,
2013-11-20 16:00:00,44.2,39.4,30.02,ESE,105,3.0,3.0,83,0.00,,,0.20,21,Wunderground v.1.15,2013-11-20 22:00:00,
2013-11-20 16:05:00,44.2,39.1,30.02,ESE,116,3.0,4.0,82,0.00,,,0.20,19,Wunderground v.1.15,2013-11-20 22:05:00,
2013-11-20 16:10:00,44.2,39.1,30.03,East,96,3.0,4.0,82,0.00,,,0.20,18,Wunderground v.1.15,2013-11-20 22:10:00,
2013-11-20 16:20:00,44.2,39.1,30.03,ESE,117,3.0,3.0,82,0.00,,,0.20,11,Wunderground v.1.15,2013-11-20 22:20:00,
2013-11-20 16:25:00,44.2,39.1,30.02,ESE,103,3.0,6.0,82,0.00,,,0.20,7,Wunderground v.1.15,2013-11-20 22:25:00,
2013-11-20 16:35:00,44.3,39.2,30.02,ESE,117,4.0,4.0,82,0.00,,,0.20,0,Wunderground v.1.15,2013-11-20 22:35:00,
2013-11-20 16:40:00,44.2,39.1,30.02,East,93,3.0,3.0,82,0.00,,,0.20,0,Wunderground v.1.15,2013-11-20 22:40:00,
2013-11-20 16:45:00,44.2,39.1,30.03,ESE,109,3.0,3.0,82,0.00,,,0.20,0,Wunderground v.1.15,2013-11-20 22:45:00,
2013-11-20 16:55:00,44.3,39.2,30.03,ESE,113,4.0,7.0,82,0.00,,,0.20,0,Wunderground v.1.15,2013-11-20 22:55:00,
2013-11-20 17:00:00,44.3,39.5,30.03,ESE,105,3.0,3.0,83,0.00,,,0.20,0,Wunderground v.1.15,2013-11-20 23:00:00,
2013-11-20 17:10:00,44.3,39.5,30.03,ESE,123,3.0,5.0,83,0.00,,,0.20,0,Wunderground v.1.15,2013-11-20 23:10:00,
2013-11-20 17:15:00,44.3,39.5,30.03,ESE,117,4.0,5.0,83,0.00,,,0.20,0,Wunderground v.1.15,2013-11-20 23:15:00,
2013-11-20 17:20:00,44.3,39.5,30.03,ESE,119,4.0,7.0,83,0.00,,,0.20,0,Wunderground v.1.15,2013-11-20 23:20:00,
2013-11-20 17:30:00,44.3,39.2,30.04,ESE,123,5.0,5.0,82,0.00,,,0.20,0,Wunderground v.1.15,2013-11-20 23:30:00,
2013-11-20 17:35:00,44.3,39.2,30.04,ESE,117,4.0,5.0,82,0.00,,,0.20,0,Wunderground v.1.15,2013-11-20 23:35:00,
2013-11-20 17:40:00,44.4,39.2,30.04,ESE,121,3.0,3.0,82,0.00,,,0.20,0,Wunderground v.1.15,2013-11-20 23:40:00,
2013-11-20 17:50:00,44.4,39.6,30.04,East,100,3.0,3.0,83,0.00,,,0.20,0,Wunderground v.1.15,2013-11-20 23:50:00,
2013-11-20 17:55:00,44.4,39.2,30.04,ESE,120,2.0,3.0,82,0.00,,,0.20,0,Wunderground v.1.15,2013-11-20 23:55:00,
2013-11-20 18:05:00,44.5,39.3,30.05,SE,139,3.0,4.0,82,0.00,,,0.20,0,Wunderground v.1.15,2013-11-21 00:05:00,
2013-11-20 18:10:00,44.5,39.3,30.05,ESE,119,4.0,9.0,82,0.00,,,0.20,0,Wunderground v.1.15,2013-11-21 00:10:00,
2013-11-20 18:20:00,44.6,39.4,30.05,SE,132,4.0,4.0,82,0.00,,,0.20,0,Wunderground v.1.15,2013-11-21 00:20:00,
2013-11-20 18:25:00,44.6,39.4,30.05,ESE,122,4.0,4.0,82,0.00,,,0.20,0,Wunderground v.1.15,2013-11-21 00:25:00,
2013-11-20 18:35:00,44.7,39.5,30.05,ESE,111,3.0,7.0,82,0.00,,,0.20,0,Wunderground v.1.15,2013-11-21 00:35:00,
2013-11-20 18:40:00,44.7,39.5,30.05,SE,142,3.0,9.0,82,0.00,,,0.20,0,Wunderground v.1.15,2013-11-21 00:40:00,
2013-11-20 18:50:00,44.8,39.6,30.05,ESE,123,3.0,4.0,82,0.00,,,0.20,0,Wunderground v.1.15,2013-11-21 00:50:00,
2013-11-20 18:55:00,44.8,39.6,30.05,SE,136,3.0,7.0,82,0.00,,,0.20,0,Wunderground v.1.15,2013-11-21 00:55:00,
2013-11-20 19:00:00,44.9,39.7,30.05,SE,146,4.0,8.0,82,0.00,,,0.20,0,Wunderground v.1.15,2013-11-21 01:00:00,
2013-11-20 19:10:00,45.0,39.8,30.05,ESE,122,4.0,5.0,82,0.00,,,0.20,0,Wunderground v.1.15,2013-11-21 01:10:00,
2013-11-20 19:15:00,45.0,39.8,30.05,SE,136,5.0,5.0,82,0.00,,,0.20,0,Wunderground v.1.15,2013-11-21 01:15:00,
2013-11-20 19:25:00,45.1,39.9,30.05,SE,131,4.0,5.0,82,0.00,,,0.20,0,Wunderground v.1.15,2013-11-21 01:25:00,
2013-11-20 19:30:00,45.1,39.9,30.05,ESE,119,4.0,4.0,82,0.00,,,0.20,0,Wunderground v.1.15,2013-11-21 01:30:00,
2013-11-20 19:35:00,45.1,39.9,30.05,SE,146,4.0,4.0,82,0.00,,,0.20,0,Wunderground v.1.15,2013-11-21 01:35:00,
2013-11-20 19:45:00,45.2,40.0,30.05,ESE,123,3.0,3.0,82,0.00,,,0.20,0,Wunderground v.1.15,2013-11-21 01:45:00,
2013-11-20 19:50:00,45.2,40.0,30.05,ESE,103,3.0,3.0,82,0.00,,,0.20,0,Wunderground v.1.15,2013-11-21 01:50:00,
2013-11-20 20:00:00,45.3,40.1,30.06,SE,133,3.0,4.0,82,0.00,,,0.20,0,Wunderground v.1.15,2013-11-21 02:00:00,
2013-11-20 20:05:00,45.4,40.2,30.05,SE,138,3.0,4.0,82,0.00,,,0.20,0,Wunderground v.1.15,2013-11-21 02:05:00,
2013-11-20 20:15:00,45.6,40.4,30.06,SE,125,4.0,4.0,82,0.00,,,0.20,0,Wunderground v.1.15,2013-11-21 02:15:00,
2013-11-20 20:20:00,45.6,40.4,30.06,SE,134,4.0,4.0,82,0.00,,,0.20,0,Wunderground v.1.15,2013-11-21 02:20:00,
2013-11-20 20:25:00,45.6,40.4,30.06,SE,135,4.0,4.0,82,0.00,,,0.20,0,Wunderground v.1.15,2013-11-21 02:25:00,
2013-11-20 20:35:00,45.8,40.6,30.06,SE,134,4.0,4.0,82,0.00,,,0.20,0,Wunderground v.1.15,2013-11-21 02:35:00,
2013-11-20 20:45:00,45.8,40.6,30.06,SE,132,3.0,4.0,82,0.00,,,0.20,0,Wunderground v.1.15,2013-11-21 02:45:00,
2013-11-20 20:50:00,45.8,40.3,30.06,SE,138,3.0,5.0,81,0.00,,,0.20,0,Wunderground v.1.15,2013-11-21 02:50:00,
2013-11-20 20:55:00,45.8,40.6,30.06,SE,142,4.0,5.0,82,0.00,,,0.20,0,Wunderground v.1.15,2013-11-21 02:55:00,
2013-11-20 21:05:00,45.9,40.4,30.06,SE,142,4.0,4.0,81,0.00,,,0.20,0,Wunderground v.1.15,2013-11-21 03:05:00,
2013-11-20 21:10:00,45.9,40.4,30.07,SE,135,5.0,5.0,81,0.00,,,0.20,0,Wunderground v.1.15,2013-11-21 03:10:00,
2013-11-20 21:20:00,46.1,40.6,30.07,SE,131,5.0,5.0,81,0.00,,,0.20,0,Wunderground v.1.15,2013-11-21 03:20:00,
2013-11-20 21:25:00,46.1,40.6,30.06,SE,138,4.0,5.0,81,0.00,,,0.20,0,Wunderground v.1.15,2013-11-21 03:25:00,
2013-11-20 21:30:00,46.1,40.6,30.07,SE,138,4.0,4.0,81,0.00,,,0.20,0,Wunderground v.1.15,2013-11-21 03:30:00,
2013-11-20 21:40:00,46.2,40.7,30.07,SE,132,5.0,5.0,81,0.00,,,0.20,0,Wunderground v.1.15,2013-11-21 03:40:00,
2013-11-20 21:45:00,46.3,40.5,30.07,SE,131,5.0,5.0,80,0.00,,,0.20,0,Wunderground v.1.15,2013-11-21 03:45:00,
2013-11-20 21:55:00,46.3,40.5,30.07,SE,143,4.0,6.0,80,0.00,,,0.20,0,Wunderground v.1.15,2013-11-21 03:55:00,
2013-11-20 22:00:00,46.4,40.6,30.07,SE,134,4.0,5.0,80,0.00,,,0.20,0,Wunderground v.1.15,2013-11-21 04:00:00,
2013-11-20 22:10:00,46.4,40.6,30.07,SE,143,5.0,5.0,80,0.00,,,0.20,0,Wunderground v.1.15,2013-11-21 04:10:00,
2013-11-20 22:15:00,46.5,40.7,30.07,SE,140,5.0,5.0,80,0.00,,,0.20,0,Wunderground v.1.15,2013-11-21 04:15:00,
2013-11-20 22:20:00,46.5,40.7,30.08,SE,142,5.0,8.0,80,0.00,,,0.20,0,Wunderground v.1.15,2013-11-21 04:20:00,
2013-11-20 22:30:00,46.7,40.9,30.07,SE,132,5.0,7.0,80,0.00,,,0.20,0,Wunderground v.1.15,2013-11-21 04:30:00,
2013-11-20 22:35:00,46.7,40.5,30.07,ESE,116,6.0,8.0,79,0.00,,,0.20,0,Wunderground v.1.15,2013-11-21 04:35:00,
2013-11-20 22:45:00,46.8,40.6,30.07,SE,141,5.0,6.0,79,0.00,,,0.20,0,Wunderground v.1.15,2013-11-21 04:45:00,
2013-11-20 22:50:00,46.9,40.7,30.07,SE,138,5.0,7.0,79,0.00,,,0.20,0,Wunderground v.1.15,2013-11-21 04:50:00,
2013-11-20 22:55:00,47.0,40.5,30.07,SE,136,5.0,7.0,78,0.00,,,0.20,0,Wunderground v.1.15,2013-11-21 04:55:00,
2013-11-20 23:05:00,47.0,40.8,30.06,SE,146,5.0,8.0,79,0.00,,,0.20,0,Wunderground v.1.15,2013-11-21 05:05:00,
2013-11-20 23:10:00,47.0,40.8,30.06,SSE,149,5.0,5.0,79,0.00,,,0.20,0,Wunderground v.1.15,2013-11-21 05:10:00,
2013-11-20 23:20:00,47.1,40.6,30.07,SE,126,5.0,10.0,78,0.00,,,0.20,0,Wunderground v.1.15,2013-11-21 05:20:00,
2013-11-20 23:25:00,47.2,40.7,30.07,SE,134,5.0,10.0,78,0.00,,,0.20,0,Wunderground v.1.15,2013-11-21 05:25:00,
2013-11-20 23:35:00,47.4,40.6,30.07,SE,140,5.0,9.0,77,0.00,,,0.20,0,Wunderground v.1.15,2013-11-21 05:35:00,
2013-11-20 23:40:00,47.5,40.6,30.07,SE,132,4.0,4.0,77,0.00,,,0.20,0,Wunderground v.1.15,2013-11-21 05:40:00,
2013-11-20 23:50:00,47.5,40.6,30.08,SE,144,5.0,5.0,77,0.00,,,0.20,0,Wunderground v.1.15,2013-11-21 05:50:00,
2013-11-20 23:55:00,47.5,40.6,30.08,SSE,150,4.0,6.0,77,0.00,,,0.20,0,Wunderground v.1.15,2013-11-21 05:55:00,